Regional Weather Roundup
Issued by NWS

Home | Current Version | Previous Version | Graphics & Text | Print | Product List | Glossary On
Versions: 1 2 3 4 5 6 7 8 9 10 11 12 13 14 15 16 17 18 19 20 21 22 23 24 25 26 27 28 29 30 31 32 33 34 35 36 37 38 39 40 41 42 43 44 45 46 47 48 49 50
000
ASUS43 KFSD 280610
RWRSD

WEATHER ROUNDUP FOR SOUTH DAKOTA
NATIONAL WEATHER SERVICE SIOUX FALLS SD
1200 AM CST FRI NOV 28 2014

NOTE: "FAIR" INDICATES FEW OR NO CLOUDS BELOW 12,000 FEET WITH NO
SIGNIFICANT WEATHER AND/OR OBSTRUCTIONS TO VISIBILITY.


SDZ001>005-009-010-012>017-280700-
NORTHWEST AND NORTH CENTRAL SOUTH DAKOTA

CITY           SKY/WX    TMP DP  RH WIND       PRES   REMARKS
BUFFALO          N/A     27  22  81 SE7       29.69F WCI  19
FAITH            N/A     23  17  78 S15       29.79F WCI  10
MOBRIDGE       CLEAR     13   9  84 E12       29.84F WCI  -1
$$

SDZ012>016-024>037-041>051-057-063-072>074-280700-
SOUTHWEST AND SOUTH CENTRAL SOUTH DAKOTA

CITY           SKY/WX    TMP DP  RH WIND       PRES   REMARKS
RAPID CTY ARPT MOCLDY    36  26  67 S3        29.84F
PIERRE         PTCLDY    20  16  84 CALM      29.84F
CUSTER         PTCLDY    37  24  59 S5        29.91F
ELLSWORTH AFB  CLOUDY    42  28  57 SW7       29.83F
PHILIP         CLEAR     24  20  84 W6        29.84F WCI  17
PINE RIDGE     CLEAR     37  29  72 SW9       29.91S
SPEARFISH      FAIR      48  28  46 CALM      29.82F
WINNER         FAIR      41  26  55 SW10      29.84F
$$

SDZ004>011-016>023-039-040-280700-
NORTHEAST SOUTH DAKOTA

CITY           SKY/WX    TMP DP  RH WIND       PRES   REMARKS
ABERDEEN       PTCLDY    14   8  77 SE5       29.96F WCI   6
WATERTOWN      CLOUDY    15   8  73 SE12      29.95F WCI   2
SISSETON         N/A      8   4  83 S15       30.04F WCI  -9
$$

SDZ017-020-022-023-036>040-048>070-280700-
SOUTHEAST SOUTH DAKOTA

CITY           SKY/WX    TMP DP  RH WIND       PRES   REMARKS
SIOUX FALLS    CLOUDY    18  11  74 S16       30.00F WCI   3
HURON          PTCLDY    18  12  77 SE14      29.91F WCI   4
CHAMBERLAIN    CLEAR     26  19  74 SE3       29.85F
MITCHELL       PTCLDY    22  15  75 S15       29.94F WCI   9
YANKTON        CLOUDY    23  12  63 SE15      29.99F WCI  10
$$

ABBREVIATIONS USED IN REMARKS
   TC - TEMPERATURE IN CELSIUS
  WCI - WIND CHILL INDEX
   HX - HEAT INDEX
  VSB - VISIBILITY




USA.gov is the U.S. government's official web portal to all federal, state and local government web resources and services.